Powrót do katalogu

STARLINK-35954

AktywnyŁącznośćVLEO
NORAD 66885·PAYLOAD·🇺🇸 United States

Wystrzelony Dec 4, 2025 z Vandenberg Space Force Base

Loading…

Następne Przeloty (najbliższe 24 godziny)

TLE

ŚwieżeSource: CelesTrak SupGP

Epoka: Sep 15, 2026, 02:51 UTC

1 66885C 25283H   26258.11923611 -.00055649  00000+0 -16442-2 0  2587
2 66885  53.1582 220.8378 0001322  89.9708 331.5681 15.34418725    16

Śledź STARLINK-35954 w czasie rzeczywistym z AllMySat

Download on the App Store